Probability
0 0 0 0 0 0 0 0 0 0 0 0 1 6 10 5 0 0 0 0 0 1 3 7 10 10 7 3 1 0 0 0 0 0 0 0 0 0 0 0 0 0 0 0 0 0 0 0 0
0 0 0 0 0 0 0 0 0 0 0 0 0 3 5 3 0 0 0 0 0 0 1 3 5 5 3 1 0 0 0 0 0 0 0 0 0 0 0 0 0 0 0 0 0 0 0 0 0
0 0 0 0 0 0 0 0 0 0 0 0 0 1 1 1 1 0 0 0 0 0 0 0 1 1 0 0 0 0 0 0 0 0 0 0 0 0 0 0 0 0 0 0 0 0 0 0 0
0 0 0 0 0 0 0 0 0 0 0 1 3 2 1 2 3 2 0 0 0 0 0 0 0 0 0 0 0 0 0 0 0 0 0 0 0 0 0 0 0 0 0 0 0 0 0 0 0
0 0 0 0 0 0 0 0 0 0 1 4 6 4 1 5 9 5 0 0 0 0 0 0 0 0 0 0 0 0 0 0 0 0 0 0 0 0 0 0 0 0 0 0 0 0 0 0 0
0 0 0 0 0 0 0 0 0 0 1 5 7 3 1 8 13 7 1 0 0 0 0 0 0 0 0 0 0 0 0 0 0 0 0 0 0 0 0 0 0 0 0 0 0 0 0 0 0
0 0 0 0 0 0 0 0 0 0 1 3 4 3 1 7 11 8 3 1 0 0 0 0 0 0 0 0 0 0 0 0 0 0 0 0 0 0 0 0 0 0 0 0 0 0 0 0 0
0 0 0 0 0 0 0 0 0 0 0 1 2 2 1 3 8 11 10 6 2 0 0 0 0 0 0 0 0 0 0 0 0 0 0 0 0 0 0 0 0 0 0 0 0 0 0 0 0
0 0 0 0 0 0 0 0 0 0 1 1 2 2 1 2 6 15 20 15 6 1 0 0 0 0 0 0 0 0 0 0 0 0 0 0 0 0 0 0 0 0 0 0 0 0 0 0 0
0 0 0 0 0 0 0 0 0 1 3 4 5 5 4 4 7 17 29 26 14 4 1 1 0 1 1 0 0 0 0 0 0 0 0 0 0 0 0 0 0 0 0 0 0 0 0 0 0
0 0 0 0 0 0 0 0 0 1 4 8 12 12 9 9 12 20 33 36 23 9 4 3 2 2 2 1 0 0 0 0 0 0 0 0 0 0 0 0 0 0 0 0 0 0 0 0 0
0 0 0 0 0 0 0 0 0 1 5 11 19 20 16 16 19 25 36 41 31 17 11 10 8 6 4 2 0 0 0 0 0 0 0 0 0 0 0 0 0 0 0 0 0 0 0 0 0
0 0 0 0 0 0 0 0 1 3 7 16 26 28 24 22 23 27 36 45 44 34 27 27 24 17 11 5 2 0 0 0 0 0 0 0 0 0 0 0 0 0 0 0 0 0 0 0 0
0 0 0 0 0 0 0 0 1 4 11 22 32 36 31 25 24 29 41 55 60 55 51 51 48 38 25 15 7 3 1 0 0 0 0 0 0 0 0 0 0 0 0 0 0 0 0 0 0
0 0 0 0 0 0 0 0 0 4 12 23 33 37 31 24 28 39 51 63 70 70 70 73 71 63 49 32 18 11 9 7 4 2 1 1 2 1 1 0 0 0 0 0 0 0 0 0 0
0 0 0 0 0 0 0 0 0 3 10 19 27 30 24 20 28 43 55 65 75 81 84 87 88 83 72 55 38 31 31 28 17 8 5 6 5 4 2 1 0 0 0 0 0 0 0 0 0
0 0 0 0 0 0 0 0 0 1 6 13 20 24 20 16 23 36 52 68 80 86 88 93 95 93 87 76 63 55 53 46 29 14 10 9 7 4 2 2 1 0 0 0 0 0 0 0 0
0 0 0 0 0 0 0 0 0 0 2 6 12 16 17 15 20 34 54 72 82 84 86 93 96 96 92 87 80 71 61 47 30 16 11 9 7 4 2 2 1 0 0 0 0 0 0 0 0
0 0 0 0 0 0 0 0 0 0 0 2 4 7 11 14 21 37 58 74 82 83 86 93 96 94 91 87 81 69 53 36 22 12 7 6 4 2 1 1 0 0 0 0 0 0 0 0 0
0 0 0 0 0 0 0 0 0 0 0 0 1 3 8 14 23 39 60 78 85 87 90 95 96 93 89 81 70 55 37 21 11 6 3 2 1 1 0 0 0 0 0 0 0 0 0 0 0
0 0 0 0 0 0 0 0 0 0 0 0 1 3 10 21 32 46 66 82 89 92 95 97 95 90 83 73 57 40 24 11 4 1 0 0 0 0 0 0 0 0 0 0 0 0 0 0 0
0 0 0 0 0 0 0 0 0 0 0 0 0 3 14 29 43 58 73 86 92 95 97 95 89 80 72 61 46 31 17 7 1 0 0 0 0 0 0 0 0 0 0 0 0 0 0 0 0
0 0 0 0 0 0 0 0 0 0 0 0 2 6 17 34 52 69 83 91 95 97 95 89 79 67 58 48 35 23 12 4 1 0 0 0 0 0 0 0 0 0 0 0 0 0 0 0 0
0 0 0 0 0 0 0 0 0 0 0 1 7 15 26 43 64 81 92 95 96 94 87 77 66 53 42 32 22 14 7 2 0 0 0 0 0 0 0 0 0 0 0 0 0 0 0 0 0
0 0 0 0 0 0 0 0 0 1 3 7 16 31 46 61 77 89 94 94 90 83 73 60 48 36 25 18 13 8 4 2 0 0 0 0 0 0 0 0 0 0 0 0 0 0 0 0 0
0 0 0 0 0 0 0 0 1 5 11 20 32 49 65 76 84 87 85 81 73 63 50 37 27 19 12 9 7 5 3 1 0 0 0 0 0 0 0 0 0 0 0 0 0 0 0 0 0
0 0 0 0 0 0 0 0 1 5 16 28 40 54 67 75 77 73 65 57 47 35 24 16 11 7 5 4 3 2 1 1 0 0 0 0 0 0 0 0 0 0 0 0 0 0 0 0 0
0 0 0 0 0 0 0 0 1 3 12 25 37 46 53 58 57 48 38 29 20 12 6 4 3 2 1 1 1 1 0 0 0 0 0 0 0 0 0 0 0 0 0 0 0 0 0 0 0
0 0 0 0 0 0 0 0 1 2 7 20 31 36 36 35 31 23 15 9 5 2 1 0 0 0 0 0 0 0 0 0 0 0 0 0 0 0 0 0 0 0 0 0 0 0 0 0 0
0 0 0 0 0 0 0 0 1 2 8 18 27 28 25 20 14 9 5 2 1 0 0 0 0 0 0 0 0 0 0 0 0 0 0 0 0 0 0 0 0 0 0 0 0 0 0 0 0
Wind_Speed
5 4 1 3 6 4 3 5 4 3 2 2 7 10 9 5 5 4 3 14 15 14 10 13 15 15 15 14 14 14 14 14 14 13 12 12 11 11 10 10 10 10 10 9 9 8 7 6 5
3 2 3 5 5 1 5 4 2 4 5 7 8 9 8 6 8 11 7 13 16 14 9 11 16 16 16 15 15 15 15 15 14 13 13 12 11 10 10 10 10 9 9 8 7 6 5 5 4
3 1 3 4 2 5 5 2 2 2 4 7 6 5 7 9 12 9 9 16 14 11 9 12 18 17 16 16 15 15 15 15 14 14 13 11 10 9 9 9 10 9 8 7 6 5 4 3 2
2 4 4 2 7 8 6 5 4 2 2 3 7 7 5 7 9 12 17 17 15 12 10 12 17 17 17 16 15 15 15 15 14 14 13 11 10 9 9 9 9 8 7 7 6 4 3 1 1
3 4 2 3 8 7 6 9 9 6 5 4 10 7 5 5 17 20 18 16 15 10 8 10 16 17 17 17 16 15 15 14 13 12 11 10 9 9 9 9 9 8 7 6 5 4 2 1 2
3 4 2 5 8 8 7 8 7 6 6 7 10 8 4 11 20 19 17 15 14 12 9 9 16 17 17 16 16 14 14 13 12 11 10 10 9 9 9 9 8 7 7 6 5 4 3 3 4
4 3 4 5 7 9 8 2 4 6 7 6 9 9 6 10 15 18 16 15 13 13 11 8 9 12 16 16 15 14 13 12 12 11 10 10 9 9 9 8 8 8 7 6 6 5 5 5 5
5 3 3 4 5 7 4 1 3 7 6 6 7 12 10 13 14 15 15 14 13 11 11 9 8 7 8 9 15 15 14 13 12 12 12 11 10 10 10 8 8 9 8 7 7 6 6 6 6
2 2 4 5 4 5 4 1 1 1 6 4 3 7 13 18 16 16 14 12 11 11 9 10 9 8 7 7 11 12 14 13 12 10 12 10 5 5 6 8 10 9 9 8 8 7 6 6 7
5 5 8 6 4 5 7 4 4 2 4 4 6 9 17 17 17 18 18 17 15 15 13 11 11 10 9 9 7 5 6 6 6 5 6 5 4 4 6 8 11 10 10 9 8 7 6 5 3
6 8 7 8 9 7 6 4 3 8 4 9 14 17 18 17 16 17 18 18 18 17 16 14 13 12 11 7 7 4 3 4 5 6 6 5 4 4 4 3 5 5 7 4 3 3 2 3 3
5 8 7 10 11 8 6 4 3 7 9 13 20 23 21 20 19 19 19 18 17 17 17 16 15 13 12 8 7 6 5 5 5 6 7 5 4 4 4 3 4 3 2 3 2 2 3 3 4
7 11 14 14 13 11 8 6 6 9 11 16 20 23 23 22 20 18 17 17 17 18 18 19 17 15 13 10 8 8 7 7 7 6 7 7 5 5 5 4 3 3 3 3 3 2 2 1 1
8 8 9 9 10 8 7 6 2 6 12 17 20 22 23 22 20 16 16 17 18 19 19 18 18 16 14 11 9 8 8 7 6 6 7 8 6 5 5 4 3 3 3 3 3 2 2 2 2
6 8 12 10 7 6 2 6 4 7 12 17 19 19 19 18 18 19 20 18 18 17 17 17 17 16 15 13 11 8 7 7 6 5 6 7 6 5 5 4 3 2 2 3 3 3 3 3 4
5 4 6 10 6 7 1 7 10 7 12 15 17 16 17 15 17 18 17 14 15 15 15 16 16 16 15 11 9 7 7 7 5 5 5 6 5 6 5 4 3 2 3 3 4 3 3 3 3
3 2 5 10 7 5 3 7 10 7 12 14 16 16 16 15 15 15 16 16 17 17 16 15 13 15 13 10 7 7 6 6 5 4 4 5 6 6 5 4 3 4 4 3 3 4 3 3 3
5 4 5 8 8 5 6 11 14 9 12 15 15 16 16 16 19 16 15 16 16 16 15 15 13 14 13 10 7 5 5 4 4 4 5 6 6 7 6 5 5 5 4 4 4 4 4 3 2
4 5 9 12 11 6 10 13 16 14 9 12 15 16 17 20 20 15 14 15 14 14 15 16 17 16 13 9 8 7 5 4 4 5 7 7 8 8 7 5 5 5 4 3 3 3 4 3 3
7 9 12 13 12 5 6 10 11 10 9 11 15 16 17 15 12 14 15 15 17 18 17 16 16 14 10 7 5 5 6 5 4 4 6 7 8 7 7 7 5 4 4 5 5 3 2 3 3
9 10 14 13 13 6 3 8 8 8 5 4 8 10 12 15 16 16 17 18 17 17 16 13 11 10 9 9 8 8 6 4 3 5 4 6 7 8 8 7 6 5 4 4 4 4 3 2 3
11 13 13 12 7 6 1 4 10 7 8 6 6 6 8 10 12 14 16 17 16 13 10 10 10 9 9 10 10 11 8 6 4 4 4 5 6 7 8 7 6 5 4 4 4 4 3 3 2
14 13 9 6 3 3 4 1 10 7 7 9 9 7 6 8 11 13 14 13 11 11 10 10 10 9 8 8 9 9 7 6 6 6 7 6 5 6 7 6 6 5 4 4 4 3 3 2 1
11 3 3 4 5 2 5 1 8 6 8 9 7 4 3 5 7 9 9 12 12 12 11 11 10 9 8 8 8 9 11 11 9 7 6 5 4 4 5 6 5 5 4 3 2 2 2 1 1
4 5 4 4 4 6 5 2 9 10 8 7 6 0 3 7 12 13 13 13 12 12 11 10 10 9 8 8 8 9 10 10 9 8 6 5 4 3 4 5 4 3 3 3 2 1 0 1 1
6 11 10 6 5 5 3 4 6 7 6 6 7 8 10 12 12 13 13 12 12 11 10 9 10 9 8 8 8 8 8 6 5 6 5 5 5 4 5 5 4 4 3 3 2 1 1 1 2
6 6 10 9 4 1 5 5 5 8 11 12 12 13 13 12 13 13 13 12 11 10 9 9 10 9 9 9 9 8 8 7 7 7 6 5 5 5 5 5 4 3 2 2 2 2 3 3 3
10 10 7 7 6 4 4 2 3 5 6 8 10 12 12 13 13 13 12 11 11 10 10 10 9 9 9 8 8 8 8 8 8 7 7 6 5 4 4 3 2 1 1 1 1 2 2 2 3
1 3 5 6 7 8 3 2 3 1 3 8 10 11 12 12 12 11 10 10 10 10 10 10 9 9 8 8 8 8 7 7 7 7 6 5 4 4 3 2 2 2 3 4 4 4 4 4 4
2 3 6 6 5 6 6 1 5 3 5 9 11 11 11 11 10 10 10 9 8 9 9 9 9 8 7 7 7 7 7 7 7 6 5 5 5 4 4 4 5 6 7 7 6 5 5 4 4
Wind_Direction
298 280 116 61 47 40 270 249 222 206 182 187 129 118 119 111 148 164 126 141 137 143 146 140 135 133 131 128 126 124 122 119 116 113 110 107 104 103 103 105 107 108 110 110 107 104 99 93 88
302 310 47 57 79 348 279 252 241 221 160 136 117 117 103 81 93 114 123 142 141 142 143 142 137 134 131 129 127 126 126 124 122 120 117 114 111 109 108 110 112 111 111 109 106 101 94 84 70
288 1 75 73 153 193 235 246 237 289 148 144 121 91 93 115 124 136 143 143 141 140 142 146 138 134 133 131 130 130 130 129 128 126 124 121 119 118 117 118 119 119 117 116 113 107 97 77 43
31 41 51 88 242 231 217 266 270 260 156 129 111 82 82 121 133 139 142 147 143 142 144 145 138 136 135 135 134 134 135 135 133 132 130 127 125 126 127 127 128 128 128 127 125 120 110 77 345
65 78 63 277 258 255 239 236 241 217 172 126 102 90 64 77 121 135 147 150 144 140 141 143 139 139 139 139 139 139 139 138 136 135 133 131 130 131 132 134 136 138 139 140 141 143 155 224 278
61 79 122 255 268 274 266 233 212 177 144 127 107 102 91 129 134 146 150 148 144 142 140 142 145 144 144 144 143 143 142 141 140 139 137 136 136 137 138 141 144 146 149 154 163 180 208 241 269
132 129 203 235 269 283 277 229 168 167 154 153 129 106 125 149 148 151 148 142 141 144 144 144 149 149 150 149 148 147 147 147 147 146 145 145 146 148 150 151 153 158 163 173 187 206 229 253 276
166 131 245 243 259 273 283 235 184 165 158 142 128 134 159 173 154 147 142 140 142 146 151 151 151 150 151 154 155 155 156 156 156 156 156 157 159 163 165 164 169 173 181 191 204 219 240 261 280
147 102 240 237 239 274 321 328 250 205 123 137 129 144 156 158 149 141 140 139 148 155 160 159 158 158 156 159 165 163 164 166 166 166 167 165 167 170 172 178 183 187 195 204 213 226 245 266 283
155 191 230 222 232 280 303 257 195 102 118 103 85 106 140 153 153 152 156 159 164 167 171 169 167 167 166 171 164 169 171 173 172 173 175 172 177 189 190 195 193 197 204 213 221 231 249 269 283
185 211 238 262 268 276 285 263 182 138 166 160 147 145 154 160 162 163 167 169 172 172 173 175 174 173 175 173 167 177 178 178 183 186 187 184 186 197 196 185 198 204 210 217 238 249 246 257 273
250 257 259 268 274 275 252 221 181 172 188 175 158 155 164 170 172 173 172 175 172 173 178 177 177 177 180 174 176 180 183 187 194 198 194 187 189 191 188 188 193 195 199 197 222 237 239 246 263
256 265 268 267 271 263 256 232 196 203 181 167 159 161 173 177 179 176 172 173 176 179 181 179 179 179 180 175 182 184 190 192 198 197 196 190 188 191 189 193 192 203 198 186 194 215 222 217 238
249 266 280 288 288 273 262 268 185 218 163 165 169 175 181 183 178 171 173 175 181 184 184 179 180 181 179 180 186 187 190 191 194 196 194 186 181 179 176 174 173 189 185 173 168 161 132 99 78
254 278 294 291 286 278 300 306 260 199 166 173 181 186 188 186 181 181 180 177 181 183 182 180 180 180 181 183 190 188 186 182 185 184 177 169 161 157 149 144 147 157 145 132 113 96 79 69 54
343 333 306 296 289 285 349 277 273 196 178 186 191 195 195 196 193 188 180 172 175 176 177 181 180 179 181 179 183 181 177 169 169 162 152 144 132 127 123 121 114 106 99 101 98 81 71 53 40
349 295 290 298 287 278 269 261 268 204 189 198 198 201 201 202 206 196 182 174 176 177 174 176 172 173 174 169 167 166 158 155 150 137 122 113 109 110 105 98 85 79 72 65 76 62 69 51 22
248 268 282 275 286 304 276 262 268 249 203 204 204 205 206 206 211 200 185 179 175 174 173 173 168 173 169 158 147 137 127 126 119 114 110 105 98 97 95 86 74 72 72 57 57 63 52 53 19
222 267 277 278 286 292 268 264 268 263 229 209 205 206 208 212 213 199 185 179 174 174 176 178 174 176 169 162 154 141 133 118 102 99 103 101 97 92 87 83 69 66 73 70 67 64 51 32 20
242 261 273 285 283 265 274 276 270 266 237 205 198 202 208 211 210 198 187 181 181 182 182 182 179 174 170 155 135 116 114 103 96 97 87 90 95 95 93 87 79 67 73 62 51 55 60 26 32
245 235 247 257 282 311 313 316 316 306 289 231 204 199 198 195 199 191 185 185 181 182 183 178 171 158 149 135 120 113 99 88 82 82 80 82 92 94 96 93 88 75 77 77 68 65 78 51 21
249 238 233 243 258 280 335 290 296 302 319 299 269 245 215 198 192 184 179 179 179 174 161 151 147 144 138 137 142 144 142 139 135 125 111 97 93 99 101 100 97 90 88 88 79 76 81 87 40
233 243 233 233 224 301 333 294 284 310 302 288 284 270 239 208 185 178 173 166 149 138 133 128 125 122 123 129 134 130 122 118 121 119 116 106 98 102 108 107 102 98 98 99 91 88 81 101 128
222 227 8 49 70 333 272 246 285 273 258 271 281 285 243 174 144 132 119 113 111 109 108 110 110 105 110 117 123 133 134 133 134 133 130 121 110 103 110 108 102 108 112 112 108 100 93 121 159
166 106 37 352 5 260 267 233 258 274 278 261 263 271 82 110 119 118 116 112 108 105 103 103 105 101 102 109 115 126 130 134 139 141 137 132 124 119 121 114 115 120 126 118 110 94 45 246 233
196 146 158 189 216 270 313 225 265 306 351 47 73 78 77 89 101 106 106 103 100 98 94 94 97 98 99 100 100 106 112 112 117 121 126 131 130 128 130 128 130 133 132 130 138 164 247 247 245
170 181 172 150 181 248 282 280 326 8 37 53 66 76 79 82 88 91 89 87 88 87 85 92 95 93 94 98 99 98 100 103 104 104 104 110 116 124 126 131 137 149 164 186 193 226 257 264 262
173 164 112 129 165 228 274 318 320 343 41 67 78 87 91 91 89 87 86 88 88 90 90 84 90 94 93 94 98 101 97 98 100 99 98 101 106 113 126 130 140 170 244 279 291 296 303 315 312
80 132 136 143 158 162 186 294 337 304 83 98 96 99 103 101 101 100 99 99 100 100 100 99 95 95 94 95 96 95 94 97 98 99 102 103 103 106 106 106 87 52 38 36 39 27 18 14 358
155 172 150 158 203 161 144 171 358 18 54 92 101 105 109 110 108 106 106 103 100 103 103 104 101 99 99 98 94 91 90 91 92 92 90 88 82 73 69 64 66 69 66 59 54 39 28 14 354